Time,TemperatureF,DewpointF,PressureIn,WindDirection,WindDirectionDegrees,WindSpeedMPH,WindSpeedGustMPH,Humidity,HourlyPrecipIn,Conditions,Clouds,dailyrainin,SoftwareType,DateUTC
2013-01-18 00:04:00,55.9,23.4,30.20,NE,50,12.0,18.0,28,0.00,,,0.00,meteohub,2013-01-18 08:04:00,
2013-01-18 00:09:00,55.8,23.2,30.19,NNE,24,14.0,18.0,28,0.00,,,0.00,meteohub,2013-01-18 08:09:00,
2013-01-18 00:14:00,55.8,23.2,30.19,NE,42,9.0,16.0,28,0.00,,,0.00,meteohub,2013-01-18 08:14:00,
2013-01-18 00:19:00,55.6,23.0,30.19,NE,44,8.0,17.0,28,0.00,,,0.00,meteohub,2013-01-18 08:19:00,
2013-01-18 00:24:00,55.2,23.5,30.19,NE,46,8.0,17.0,29,0.00,,,0.00,meteohub,2013-01-18 08:24:00,
2013-01-18 00:29:00,55.0,24.1,30.19,NE,37,7.0,17.0,30,0.00,,,0.00,meteohub,2013-01-18 08:29:00,
2013-01-18 00:34:00,55.0,24.1,30.19,NE,42,10.0,17.0,30,0.00,,,0.00,meteohub,2013-01-18 08:34:00,
2013-01-18 00:39:00,55.0,24.1,30.19,NE,40,12.0,17.0,30,0.00,,,0.00,meteohub,2013-01-18 08:39:00,
2013-01-18 00:44:00,54.7,23.9,30.19,NE,35,11.0,16.0,30,0.00,,,0.00,meteohub,2013-01-18 08:44:00,
2013-01-18 00:49:00,54.7,24.6,30.19,ENE,63,10.0,16.0,31,0.00,,,0.00,meteohub,2013-01-18 08:49:00,
2013-01-18 00:54:00,54.3,24.3,30.19,NE,46,9.0,19.0,31,0.00,,,0.00,meteohub,2013-01-18 08:54:00,
2013-01-18 00:59:00,54.3,24.3,30.19,NE,54,8.0,19.0,31,0.00,,,0.00,meteohub,2013-01-18 08:59:00,
2013-01-18 01:04:00,54.1,24.1,30.19,NNE,28,9.0,19.0,31,0.00,,,0.00,meteohub,2013-01-18 09:04:00,
2013-01-18 01:09:00,54.1,25.0,30.19,NE,38,10.0,18.0,32,0.00,,,0.00,meteohub,2013-01-18 09:09:00,
2013-01-18 01:14:00,54.1,24.1,30.19,ENE,57,15.0,18.0,31,0.00,,,0.00,meteohub,2013-01-18 09:14:00,
2013-01-18 01:19:00,54.1,24.1,30.19,NE,54,16.0,18.0,31,0.00,,,0.00,meteohub,2013-01-18 09:19:00,
2013-01-18 01:24:00,54.1,24.1,30.19,NE,49,10.0,18.0,31,0.00,,,0.00,meteohub,2013-01-18 09:24:00,
2013-01-18 01:29:00,54.1,24.1,30.19,ENE,59,9.0,17.0,31,0.00,,,0.00,meteohub,2013-01-18 09:29:00,
2013-01-18 01:34:00,54.0,24.1,30.19,NE,35,10.0,17.0,31,0.00,,,0.00,meteohub,2013-01-18 09:34:00,
2013-01-18 01:39:00,54.0,24.1,30.19,ENE,61,7.0,20.0,31,0.00,,,0.00,meteohub,2013-01-18 09:39:00,
2013-01-18 01:44:00,54.0,24.1,30.19,NE,34,15.0,20.0,31,0.00,,,0.00,meteohub,2013-01-18 09:44:00,
2013-01-18 01:49:00,54.0,23.2,30.19,NNE,20,10.0,20.0,30,0.00,,,0.00,meteohub,2013-01-18 09:49:00,
2013-01-18 01:54:00,54.1,23.4,30.19,NE,46,11.0,18.0,30,0.00,,,0.00,meteohub,2013-01-18 09:54:00,
2013-01-18 01:59:00,54.3,22.6,30.19,NNE,29,12.0,18.0,29,0.00,,,0.00,meteohub,2013-01-18 09:59:00,
2013-01-18 02:04:00,54.1,23.4,30.19,NE,48,8.0,18.0,30,0.00,,,0.00,meteohub,2013-01-18 10:04:00,
2013-01-18 02:09:00,54.1,23.4,30.19,NNE,33,14.0,18.0,30,0.00,,,0.00,meteohub,2013-01-18 10:09:00,
2013-01-18 02:14:00,54.0,23.2,30.19,ENE,63,10.0,17.0,30,0.00,,,0.00,meteohub,2013-01-18 10:14:00,
2013-01-18 02:19:00,54.1,23.4,30.19,NE,53,10.0,20.0,30,0.00,,,0.00,meteohub,2013-01-18 10:19:00,
2013-01-18 02:24:00,54.0,23.2,30.19,NNE,28,14.0,20.0,30,0.00,,,0.00,meteohub,2013-01-18 10:24:00,
2013-01-18 02:29:00,54.1,22.6,30.19,NE,55,12.0,20.0,29,0.00,,,0.00,meteohub,2013-01-18 10:29:00,
2013-01-18 02:34:00,54.1,21.7,30.19,ENE,61,10.0,17.0,28,0.00,,,0.00,meteohub,2013-01-18 10:34:00,
2013-01-18 02:40:00,54.3,21.9,30.19,NE,49,10.0,18.0,28,0.00,,,0.00,meteohub,2013-01-18 10:40:00,
2013-01-18 02:45:00,54.3,21.9,30.19,NE,52,8.0,18.0,28,0.00,,,0.00,meteohub,2013-01-18 10:45:00,
2013-01-18 02:50:00,54.3,21.9,30.19,NE,49,7.0,18.0,28,0.00,,,0.00,meteohub,2013-01-18 10:50:00,
2013-01-18 02:55:00,54.1,21.7,30.19,ENE,69,9.0,19.0,28,0.00,,,0.00,meteohub,2013-01-18 10:55:00,
2013-01-18 03:00:00,54.1,21.7,30.19,ENE,58,8.0,19.0,28,0.00,,,0.00,meteohub,2013-01-18 11:00:00,
2013-01-18 03:05:00,53.8,21.4,30.19,NE,49,10.0,19.0,28,0.00,,,0.00,meteohub,2013-01-18 11:05:00,
2013-01-18 03:10:00,53.6,22.1,30.19,NE,36,9.0,18.0,29,0.00,,,0.00,meteohub,2013-01-18 11:10:00,
2013-01-18 03:15:00,53.2,22.6,30.19,NNE,22,8.0,18.0,30,0.00,,,0.00,meteohub,2013-01-18 11:15:00,
2013-01-18 03:20:00,53.1,22.5,30.19,NE,43,11.0,18.0,30,0.00,,,0.00,meteohub,2013-01-18 11:20:00,
2013-01-18 03:25:00,52.7,21.4,30.19,NNE,31,12.0,18.0,29,0.00,,,0.00,meteohub,2013-01-18 11:25:00,
2013-01-18 03:30:00,52.5,21.9,30.19,NNE,19,10.0,16.0,30,0.00,,,0.00,meteohub,2013-01-18 11:30:00,
2013-01-18 03:35:00,52.3,21.7,30.18,NNE,24,13.0,16.0,30,0.00,,,0.00,meteohub,2013-01-18 11:35:00,
2013-01-18 03:40:00,52.3,21.0,30.18,ENE,67,8.0,16.0,29,0.00,,,0.00,meteohub,2013-01-18 11:40:00,
2013-01-18 03:45:00,52.3,21.0,30.19,NE,35,11.0,16.0,29,0.00,,,0.00,meteohub,2013-01-18 11:45:00,
2013-01-18 03:50:00,52.2,21.7,30.18,NE,49,7.0,16.0,30,0.00,,,0.00,meteohub,2013-01-18 11:50:00,
2013-01-18 03:55:00,52.0,21.6,30.19,NNE,16,10.0,15.0,30,0.00,,,0.00,meteohub,2013-01-18 11:55:00,
2013-01-18 04:00:00,51.4,21.0,30.18,ENE,60,8.0,16.0,30,0.00,,,0.00,meteohub,2013-01-18 12:00:00,
2013-01-18 04:05:00,51.4,21.0,30.18,NNE,28,9.0,16.0,30,0.00,,,0.00,meteohub,2013-01-18 12:05:00,
2013-01-18 04:10:00,51.3,21.6,30.19,NE,51,7.0,16.0,31,0.00,,,0.00,meteohub,2013-01-18 12:10:00,
2013-01-18 04:15:00,50.7,21.2,30.18,NE,52,9.0,16.0,31,0.00,,,0.00,meteohub,2013-01-18 12:15:00,
2013-01-18 04:20:00,50.7,21.2,30.18,ENE,57,9.0,16.0,31,0.00,,,0.00,meteohub,2013-01-18 12:20:00,
2013-01-18 04:25:00,50.5,21.7,30.18,NE,46,11.0,14.0,32,0.00,,,0.00,meteohub,2013-01-18 12:25:00,
2013-01-18 04:30:00,50.5,21.0,30.18,NE,42,10.0,14.0,31,0.00,,,0.00,meteohub,2013-01-18 12:30:00,
2013-01-18 04:35:00,50.5,21.0,30.18,NE,36,11.0,14.0,31,0.00,,,0.00,meteohub,2013-01-18 12:35:00,
2013-01-18 04:40:00,50.5,21.0,30.18,NE,41,9.0,14.0,31,0.00,,,0.00,meteohub,2013-01-18 12:40:00,
2013-01-18 04:45:00,50.4,21.6,30.18,NE,43,7.0,16.0,32,0.00,,,0.00,meteohub,2013-01-18 12:45:00,
2013-01-18 04:50:00,50.4,20.8,30.18,NE,42,8.0,16.0,31,0.00,,,0.00,meteohub,2013-01-18 12:50:00,
2013-01-18 04:55:00,50.2,21.4,30.18,NE,51,11.0,16.0,32,0.00,,,0.00,meteohub,2013-01-18 12:55:00,
2013-01-18 05:00:00,50.0,21.4,30.18,NNE,28,7.0,15.0,32,0.00,,,0.00,meteohub,2013-01-18 13:00:00,
2013-01-18 05:05:00,49.6,21.7,30.18,NE,40,8.0,16.0,33,0.00,,,0.00,meteohub,2013-01-18 13:05:00,
2013-01-18 05:10:00,49.3,21.4,30.18,NE,52,8.0,16.0,33,0.00,,,0.00,meteohub,2013-01-18 13:10:00,
2013-01-18 05:15:00,49.3,21.4,30.18,NE,53,7.0,16.0,33,0.00,,,0.00,meteohub,2013-01-18 13:15:00,
2013-01-18 05:20:00,48.9,21.7,30.18,NE,56,12.0,15.0,34,0.00,,,0.00,meteohub,2013-01-18 13:20:00,
2013-01-18 05:25:00,48.7,20.8,30.18,NE,53,6.0,15.0,33,0.00,,,0.00,meteohub,2013-01-18 13:25:00,
2013-01-18 05:30:00,48.7,21.6,30.18,NNE,32,10.0,15.0,34,0.00,,,0.00,meteohub,2013-01-18 13:30:00,
2013-01-18 05:35:00,48.7,21.6,30.18,NE,38,9.0,15.0,34,0.00,,,0.00,meteohub,2013-01-18 13:35:00,
2013-01-18 05:40:00,48.7,20.8,30.18,ENE,67,7.0,14.0,33,0.00,,,0.00,meteohub,2013-01-18 13:40:00,
2013-01-18 05:45:00,48.7,20.8,30.18,NE,34,8.0,14.0,33,0.00,,,0.00,meteohub,2013-01-18 13:45:00,
2013-01-18 05:50:00,48.9,21.0,30.18,ENE,59,12.0,15.0,33,0.00,,,0.00,meteohub,2013-01-18 13:50:00,
2013-01-18 05:55:00,49.1,20.5,30.19,NE,51,8.0,15.0,32,0.00,,,0.00,meteohub,2013-01-18 13:55:00,
2013-01-18 06:00:00,49.1,21.2,30.18,NNE,22,11.0,16.0,33,0.00,,,0.00,meteohub,2013-01-18 14:00:00,
2013-01-18 06:05:00,49.1,19.8,30.18,NE,47,10.0,16.0,31,0.00,,,0.00,meteohub,2013-01-18 14:05:00,
2013-01-18 06:10:00,49.5,20.8,30.18,NE,56,9.0,16.0,32,0.00,,,0.00,meteohub,2013-01-18 14:10:00,
2013-01-18 06:15:00,49.5,20.1,30.18,NNE,33,10.0,14.0,31,0.00,,,0.00,meteohub,2013-01-18 14:15:00,
2013-01-18 06:20:00,49.6,20.3,30.19,NE,47,12.0,14.0,31,0.00,,,0.00,meteohub,2013-01-18 14:20:00,
2013-01-18 06:25:00,49.5,20.1,30.19,NE,54,9.0,14.0,31,0.00,,,0.00,meteohub,2013-01-18 14:25:00,
2013-01-18 06:30:00,49.5,20.1,30.19,ENE,61,9.0,14.0,31,0.00,,,0.00,meteohub,2013-01-18 14:30:00,
2013-01-18 06:35:00,49.5,19.2,30.19,NE,51,8.0,12.0,30,0.00,,,0.00,meteohub,2013-01-18 14:35:00,
2013-01-18 06:40:00,49.6,19.4,30.19,NE,46,9.0,12.0,30,0.00,,,0.00,meteohub,2013-01-18 14:40:00,
2013-01-18 06:45:00,49.6,19.4,30.19,NE,43,9.0,12.0,30,0.00,,,0.00,meteohub,2013-01-18 14:45:00,
2013-01-18 06:50:00,49.6,19.4,30.19,NE,53,7.0,13.0,30,0.00,,,0.00,meteohub,2013-01-18 14:50:00,
2013-01-18 06:55:00,49.6,18.7,30.19,NE,40,9.0,14.0,29,0.00,,,0.00,meteohub,2013-01-18 14:55:00,
2013-01-18 07:00:00,49.6,18.7,30.19,NNE,30,7.0,14.0,29,0.00,,,0.00,meteohub,2013-01-18 15:00:00,
2013-01-18 07:05:00,49.8,18.9,30.19,NNE,27,7.0,14.0,29,0.00,,,0.00,meteohub,2013-01-18 15:05:00,
2013-01-18 07:10:00,49.8,18.9,30.19,NE,42,9.0,17.0,29,0.00,,,0.00,meteohub,2013-01-18 15:10:00,
2013-01-18 07:15:00,49.6,19.4,30.19,NE,46,9.0,17.0,30,0.00,,,0.00,meteohub,2013-01-18 15:15:00,
2013-01-18 07:20:00,49.6,19.4,30.19,NE,52,8.0,17.0,30,0.00,,,0.00,meteohub,2013-01-18 15:20:00,
2013-01-18 07:25:00,49.5,18.5,30.19,NE,40,11.0,14.0,29,0.00,,,0.00,meteohub,2013-01-18 15:25:00,
2013-01-18 07:30:00,49.5,19.2,30.20,NNE,28,7.0,12.0,30,0.00,,,0.00,meteohub,2013-01-18 15:30:00,
2013-01-18 07:35:00,49.3,19.2,30.20,ENE,67,7.0,12.0,30,0.00,,,0.00,meteohub,2013-01-18 15:35:00,
2013-01-18 07:40:00,49.3,19.2,30.20,ENE,63,10.0,12.0,30,0.00,,,0.00,meteohub,2013-01-18 15:40:00,
2013-01-18 07:45:00,49.1,19.0,30.20,NE,55,11.0,12.0,30,0.00,,,0.00,meteohub,2013-01-18 15:45:00,
2013-01-18 07:50:00,49.5,18.5,30.21,NE,46,8.0,13.0,29,0.00,,,0.00,meteohub,2013-01-18 15:50:00,
2013-01-18 07:55:00,49.8,18.9,30.21,NE,36,8.0,13.0,29,0.00,,,0.00,meteohub,2013-01-18 15:55:00,
2013-01-18 08:00:00,49.8,18.0,30.21,NNE,31,9.0,13.0,28,0.00,,,0.00,meteohub,2013-01-18 16:00:00,
2013-01-18 08:05:00,50.0,19.0,30.21,NE,50,7.0,14.0,29,0.00,,,0.00,meteohub,2013-01-18 16:05:00,
2013-01-18 08:10:00,50.2,18.3,30.21,NNE,21,7.0,14.0,28,0.00,,,0.00,meteohub,2013-01-18 16:10:00,
2013-01-18 08:15:00,50.2,19.2,30.21,NE,55,8.0,14.0,29,0.00,,,0.00,meteohub,2013-01-18 16:15:00,
2013-01-18 08:20:00,50.4,18.5,30.22,NNE,26,5.0,13.0,28,0.00,,,0.00,meteohub,2013-01-18 16:20:00,
2013-01-18 08:25:00,50.4,18.5,30.22,NE,55,10.0,13.0,28,0.00,,,0.00,meteohub,2013-01-18 16:25:00,
2013-01-18 08:30:00,50.4,18.5,30.22,NE,38,7.0,13.0,28,0.00,,,0.00,meteohub,2013-01-18 16:30:00,
2013-01-18 08:35:00,50.5,18.7,30.22,NE,51,12.0,13.0,28,0.00,,,0.00,meteohub,2013-01-18 16:35:00,
2013-01-18 08:40:00,50.7,18.9,30.22,NE,55,8.0,15.0,28,0.00,,,0.00,meteohub,2013-01-18 16:40:00,
2013-01-18 08:45:00,50.9,18.1,30.22,NE,54,7.0,15.0,27,0.00,,,0.00,meteohub,2013-01-18 16:45:00,
2013-01-18 08:50:00,51.1,19.0,30.22,ENE,68,9.0,15.0,28,0.00,,,0.00,meteohub,2013-01-18 16:50:00,
2013-01-18 08:55:00,51.1,19.0,30.23,NE,46,12.0,14.0,28,0.00,,,0.00,meteohub,2013-01-18 16:55:00,
2013-01-18 09:00:00,51.3,20.1,30.23,NNE,21,6.0,14.0,29,0.00,,,0.00,meteohub,2013-01-18 17:00:00,
2013-01-18 09:05:00,51.3,20.1,30.23,NE,52,11.0,13.0,29,0.00,,,0.00,meteohub,2013-01-18 17:05:00,
2013-01-18 09:10:00,51.4,20.3,30.23,NE,55,8.0,13.0,29,0.00,,,0.00,meteohub,2013-01-18 17:10:00,
2013-01-18 09:15:00,51.6,20.3,30.23,NNE,32,8.0,13.0,29,0.00,,,0.00,meteohub,2013-01-18 17:15:00,
2013-01-18 09:20:00,51.6,19.6,30.24,NE,56,5.0,13.0,28,0.00,,,0.00,meteohub,2013-01-18 17:20:00,
2013-01-18 09:25:00,51.4,20.3,30.24,NE,43,9.0,12.0,29,0.00,,,0.00,meteohub,2013-01-18 17:25:00,
2013-01-18 09:30:00,51.6,19.6,30.24,NE,55,11.0,14.0,28,0.00,,,0.00,meteohub,2013-01-18 17:30:00,
2013-01-18 09:35:00,51.6,19.6,30.24,ENE,61,9.0,14.0,28,0.00,,,0.00,meteohub,2013-01-18 17:35:00,
2013-01-18 09:40:00,51.6,20.3,30.24,NE,50,11.0,14.0,29,0.00,,,0.00,meteohub,2013-01-18 17:40:00,
2013-01-18 09:45:00,51.6,20.3,30.24,NE,39,10.0,14.0,29,0.00,,,0.00,meteohub,2013-01-18 17:45:00,
2013-01-18 09:50:00,52.0,19.9,30.24,NE,46,10.0,15.0,28,0.00,,,0.00,meteohub,2013-01-18 17:50:00,
2013-01-18 09:55:00,52.2,20.1,30.24,NNE,32,5.0,15.0,28,0.00,,,0.00,meteohub,2013-01-18 17:55:00,
2013-01-18 10:00:00,52.2,20.8,30.24,NE,34,9.0,15.0,29,0.00,,,0.00,meteohub,2013-01-18 18:00:00,
2013-01-18 10:05:00,52.3,21.0,30.24,NNE,24,8.0,13.0,29,0.00,,,0.00,meteohub,2013-01-18 18:05:00,
2013-01-18 10:10:00,52.5,21.2,30.24,NNE,19,9.0,14.0,29,0.00,,,0.00,meteohub,2013-01-18 18:10:00,
2013-01-18 10:15:00,53.2,21.0,30.24,NE,52,10.0,15.0,28,0.00,,,0.00,meteohub,2013-01-18 18:15:00,
2013-01-18 10:21:00,53.6,20.5,30.25,NNE,26,8.0,15.0,27,0.00,,,0.00,meteohub,2013-01-18 18:21:00,
2013-01-18 10:26:00,53.8,21.4,30.24,NE,52,10.0,15.0,28,0.00,,,0.00,meteohub,2013-01-18 18:26:00,
2013-01-18 10:31:00,54.0,20.7,30.24,ENE,63,11.0,14.0,27,0.00,,,0.00,meteohub,2013-01-18 18:31:00,
2013-01-18 10:36:00,54.1,19.9,30.24,NE,53,7.0,15.0,26,0.00,,,0.00,meteohub,2013-01-18 18:36:00,
2013-01-18 10:41:00,54.3,21.9,30.24,ENE,57,11.0,15.0,28,0.00,,,0.00,meteohub,2013-01-18 18:41:00,
2013-01-18 10:46:00,54.3,21.0,30.24,NE,49,11.0,15.0,27,0.00,,,0.00,meteohub,2013-01-18 18:46:00,
2013-01-18 10:51:00,54.5,21.2,30.24,NE,39,12.0,14.0,27,0.00,,,0.00,meteohub,2013-01-18 18:51:00,
2013-01-18 10:56:00,54.7,23.0,30.24,ENE,76,12.0,14.0,29,0.00,,,0.00,meteohub,2013-01-18 18:56:00,
2013-01-18 11:01:00,55.0,21.7,30.24,NNE,22,7.0,14.0,27,0.00,,,0.00,meteohub,2013-01-18 19:01:00,
2013-01-18 11:06:00,55.6,22.1,30.23,NNE,15,8.0,14.0,27,0.00,,,0.00,meteohub,2013-01-18 19:06:00,
2013-01-18 11:11:00,55.8,22.3,30.23,North,355,7.0,14.0,27,0.00,,,0.00,meteohub,2013-01-18 19:11:00,
2013-01-18 11:16:00,55.9,21.6,30.23,NNE,30,10.0,14.0,26,0.00,,,0.00,meteohub,2013-01-18 19:16:00,
2013-01-18 11:21:00,56.3,23.5,30.23,NNE,19,4.0,15.0,28,0.00,,,0.00,meteohub,2013-01-18 19:21:00,
2013-01-18 11:26:00,56.5,22.8,30.23,NNE,24,11.0,15.0,27,0.00,,,0.00,meteohub,2013-01-18 19:26:00,
2013-01-18 11:31:00,56.7,23.0,30.23,NE,41,8.0,15.0,27,0.00,,,0.00,meteohub,2013-01-18 19:31:00,
2013-01-18 11:36:00,56.7,23.0,30.22,North,5,9.0,15.0,27,0.00,,,0.00,meteohub,2013-01-18 19:36:00,
2013-01-18 11:41:00,57.4,23.7,30.22,North,0,11.0,15.0,27,0.00,,,0.00,meteohub,2013-01-18 19:41:00,
2013-01-18 11:46:00,57.0,23.4,30.22,NNE,21,10.0,15.0,27,0.00,,,0.00,meteohub,2013-01-18 19:46:00,
2013-01-18 11:51:00,57.4,25.3,30.22,NE,49,6.0,14.0,29,0.00,,,0.00,meteohub,2013-01-18 19:51:00,
2013-01-18 11:56:00,57.6,24.6,30.21,NNE,30,9.0,14.0,28,0.00,,,0.00,meteohub,2013-01-18 19:56:00,
2013-01-18 12:01:00,57.7,26.4,30.21,NNE,25,7.0,12.0,30,0.00,,,0.00,meteohub,2013-01-18 20:01:00,
2013-01-18 12:06:00,57.9,25.9,30.21,NNE,26,6.0,12.0,29,0.00,,,0.00,meteohub,2013-01-18 20:06:00,
2013-01-18 12:11:00,58.3,26.2,30.21,North,10,6.0,14.0,29,0.00,,,0.00,meteohub,2013-01-18 20:11:00,
2013-01-18 12:16:00,57.9,24.1,30.20,NNE,19,6.0,14.0,27,0.00,,,0.00,meteohub,2013-01-18 20:16:00,
2013-01-18 12:21:00,58.5,26.2,30.20,ENE,59,7.0,14.0,29,0.00,,,0.00,meteohub,2013-01-18 20:21:00,
2013-01-18 12:26:00,58.6,24.8,30.20,North,11,5.0,14.0,27,0.00,,,0.00,meteohub,2013-01-18 20:26:00,
2013-01-18 12:31:00,58.3,25.3,30.20,NE,55,6.0,12.0,28,0.00,,,0.00,meteohub,2013-01-18 20:31:00,
2013-01-18 12:36:00,58.6,24.8,30.19,NE,36,6.0,11.0,27,0.00,,,0.00,meteohub,2013-01-18 20:36:00,
2013-01-18 12:41:00,59.4,25.3,30.19,NE,48,8.0,11.0,27,0.00,,,0.00,meteohub,2013-01-18 20:41:00,
2013-01-18 12:46:00,59.4,25.3,30.19,ENE,57,5.0,11.0,27,0.00,,,0.00,meteohub,2013-01-18 20:46:00,
2013-01-18 12:51:00,58.6,23.9,30.19,NE,44,10.0,11.0,26,0.00,,,0.00,meteohub,2013-01-18 20:51:00,
2013-01-18 12:56:00,59.4,27.1,30.19,NNE,28,6.0,11.0,29,0.00,,,0.00,meteohub,2013-01-18 20:56:00,
2013-01-18 13:01:00,59.4,26.2,30.19,NE,46,6.0,11.0,28,0.00,,,0.00,meteohub,2013-01-18 21:01:00,
2013-01-18 13:06:00,59.5,25.5,30.18,NNE,28,6.0,11.0,27,0.00,,,0.00,meteohub,2013-01-18 21:06:00,
2013-01-18 13:11:00,59.9,25.9,30.18,NNE,29,6.0,10.0,27,0.00,,,0.00,meteohub,2013-01-18 21:11:00,
2013-01-18 13:16:00,60.1,27.7,30.18,North,5,6.0,12.0,29,0.00,,,0.00,meteohub,2013-01-18 21:16:00,
2013-01-18 13:21:00,60.3,26.1,30.18,NE,35,3.0,12.0,27,0.00,,,0.00,meteohub,2013-01-18 21:21:00,
2013-01-18 13:26:00,60.1,26.1,30.18,NE,39,5.0,12.0,27,0.00,,,0.00,meteohub,2013-01-18 21:26:00,
2013-01-18 13:31:00,60.1,26.8,30.18,NE,42,8.0,11.0,28,0.00,,,0.00,meteohub,2013-01-18 21:31:00,
2013-01-18 13:36:00,60.3,27.0,30.18,NE,36,8.0,12.0,28,0.00,,,0.00,meteohub,2013-01-18 21:36:00,
2013-01-18 13:41:00,60.4,28.9,30.18,NNE,15,6.0,12.0,30,0.00,,,0.00,meteohub,2013-01-18 21:41:00,
2013-01-18 13:46:00,60.3,29.5,30.18,NE,46,8.0,12.0,31,0.00,,,0.00,meteohub,2013-01-18 21:46:00,
2013-01-18 13:51:00,60.3,28.8,30.18,NE,56,8.0,11.0,30,0.00,,,0.00,meteohub,2013-01-18 21:51:00,
2013-01-18 13:56:00,59.7,28.2,30.18,NE,36,9.0,11.0,30,0.00,,,0.00,meteohub,2013-01-18 21:56:00,
2013-01-18 14:01:00,60.3,28.8,30.18,NNE,17,7.0,11.0,30,0.00,,,0.00,meteohub,2013-01-18 22:01:00,
2013-01-18 14:06:00,60.4,28.9,30.18,NNE,26,7.0,11.0,30,0.00,,,0.00,meteohub,2013-01-18 22:06:00,
2013-01-18 14:11:00,60.6,28.9,30.18,NE,47,7.0,12.0,30,0.00,,,0.00,meteohub,2013-01-18 22:11:00,
2013-01-18 14:16:00,60.3,28.8,30.18,NE,46,4.0,12.0,30,0.00,,,0.00,meteohub,2013-01-18 22:16:00,
2013-01-18 14:21:00,60.1,27.7,30.17,ENE,63,8.0,12.0,29,0.00,,,0.00,meteohub,2013-01-18 22:21:00,
2013-01-18 14:26:00,60.4,29.7,30.17,NNE,22,6.0,10.0,31,0.00,,,0.00,meteohub,2013-01-18 22:26:00,
2013-01-18 14:31:00,60.6,27.3,30.17,ENE,61,8.0,10.0,28,0.00,,,0.00,meteohub,2013-01-18 22:31:00,
2013-01-18 14:36:00,60.1,26.8,30.17,ENE,69,5.0,10.0,28,0.00,,,0.00,meteohub,2013-01-18 22:36:00,
2013-01-18 14:41:00,60.3,27.0,30.17,NE,42,8.0,10.0,28,0.00,,,0.00,meteohub,2013-01-18 22:41:00,
2013-01-18 14:47:00,60.3,27.0,30.17,NE,44,6.0,10.0,28,0.00,,,0.00,meteohub,2013-01-18 22:47:00,
2013-01-18 14:51:00,60.3,27.0,30.17,NNE,24,5.0,10.0,28,0.00,,,0.00,meteohub,2013-01-18 22:51:00,
2013-01-18 14:57:00,60.4,28.9,30.17,NE,40,5.0,10.0,30,0.00,,,0.00,meteohub,2013-01-18 22:57:00,
2013-01-18 15:02:00,60.6,28.2,30.17,NE,47,7.0,9.0,29,0.00,,,0.00,meteohub,2013-01-18 23:02:00,
2013-01-18 15:07:00,60.3,27.0,30.17,NE,45,8.0,9.0,28,0.00,,,0.00,meteohub,2013-01-18 23:07:00,
2013-01-18 15:12:00,60.1,26.8,30.17,NE,49,2.0,9.0,28,0.00,,,0.00,meteohub,2013-01-18 23:12:00,
2013-01-18 15:17:00,60.1,27.7,30.17,NE,40,6.0,9.0,29,0.00,,,0.00,meteohub,2013-01-18 23:17:00,
2013-01-18 15:22:00,59.9,26.8,30.17,NE,46,4.0,9.0,28,0.00,,,0.00,meteohub,2013-01-18 23:22:00,
2013-01-18 15:27:00,60.1,26.1,30.17,NE,49,6.0,12.0,27,0.00,,,0.00,meteohub,2013-01-18 23:27:00,
2013-01-18 15:32:00,60.1,27.7,30.17,ENE,59,7.0,12.0,29,0.00,,,0.00,meteohub,2013-01-18 23:32:00,
2013-01-18 15:37:00,59.9,26.8,30.17,NE,46,5.0,12.0,28,0.00,,,0.00,meteohub,2013-01-18 23:37:00,
2013-01-18 15:42:00,59.7,25.7,30.16,NE,54,5.0,8.0,27,0.00,,,0.00,meteohub,2013-01-18 23:42:00,
2013-01-18 15:47:00,59.5,27.3,30.16,NNE,18,5.0,8.0,29,0.00,,,0.00,meteohub,2013-01-18 23:47:00,
2013-01-18 15:52:00,59.5,26.4,30.16,NE,39,5.0,8.0,28,0.00,,,0.00,meteohub,2013-01-18 23:52:00,
2013-01-18 15:57:00,59.4,25.3,30.16,North,5,7.0,8.0,27,0.00,,,0.00,meteohub,2013-01-18 23:57:00,
2013-01-18 16:02:00,59.4,26.2,30.17,NE,47,6.0,8.0,28,0.00,,,0.00,meteohub,2013-01-19 00:02:00,
2013-01-18 16:07:00,58.8,25.0,30.17,NE,44,5.0,9.0,27,0.00,,,0.00,meteohub,2013-01-19 00:07:00,
2013-01-18 16:12:00,58.5,26.2,30.16,NE,36,6.0,9.0,29,0.00,,,0.00,meteohub,2013-01-19 00:12:00,
2013-01-18 16:17:00,57.9,25.9,30.17,NNE,30,5.0,9.0,29,0.00,,,0.00,meteohub,2013-01-19 00:17:00,
2013-01-18 16:22:00,57.4,26.2,30.17,NE,43,5.0,8.0,30,0.00,,,0.00,meteohub,2013-01-19 00:22:00,
2013-01-18 16:27:00,57.0,25.0,30.17,ENE,63,4.0,8.0,29,0.00,,,0.00,meteohub,2013-01-19 00:27:00,
2013-01-18 16:32:00,56.7,24.8,30.17,NE,36,3.0,8.0,29,0.00,,,0.00,meteohub,2013-01-19 00:32:00,
2013-01-18 16:37:00,56.1,26.6,30.17,NE,42,6.0,8.0,32,0.00,,,0.00,meteohub,2013-01-19 00:37:00,
2013-01-18 16:42:00,55.4,26.1,30.17,NE,46,3.0,8.0,32,0.00,,,0.00,meteohub,2013-01-19 00:42:00,
2013-01-18 16:47:00,55.0,24.1,30.17,NE,38,5.0,8.0,30,0.00,,,0.00,meteohub,2013-01-19 00:47:00,
2013-01-18 16:52:00,54.1,23.4,30.17,NNE,30,6.0,6.0,30,0.00,,,0.00,meteohub,2013-01-19 00:52:00,
2013-01-18 16:57:00,54.7,23.9,30.17,NE,38,5.0,8.0,30,0.00,,,0.00,meteohub,2013-01-19 00:57:00,
2013-01-18 17:02:00,54.3,22.6,30.17,NNE,31,4.0,8.0,29,0.00,,,0.00,meteohub,2013-01-19 01:02:00,
2013-01-18 17:07:00,54.0,22.5,30.17,NE,34,5.0,8.0,29,0.00,,,0.00,meteohub,2013-01-19 01:07:00,
2013-01-18 17:12:00,53.8,21.4,30.17,NE,40,3.0,8.0,28,0.00,,,0.00,meteohub,2013-01-19 01:12:00,
2013-01-18 17:17:00,53.2,21.7,30.17,NE,50,3.0,9.0,29,0.00,,,0.00,meteohub,2013-01-19 01:17:00,
2013-01-18 17:22:00,53.2,20.1,30.17,NNE,28,6.0,9.0,27,0.00,,,0.00,meteohub,2013-01-19 01:22:00,
2013-01-18 17:27:00,53.8,19.8,30.17,NE,40,3.0,9.0,26,0.00,,,0.00,meteohub,2013-01-19 01:27:00,
2013-01-18 17:32:00,52.9,22.3,30.17,NE,42,3.0,9.0,30,0.00,,,0.00,meteohub,2013-01-19 01:32:00,
2013-01-18 17:37:00,52.2,22.5,30.17,NE,34,5.0,9.0,31,0.00,,,0.00,meteohub,2013-01-19 01:37:00,
2013-01-18 17:42:00,51.8,22.1,30.17,NNE,26,4.0,7.0,31,0.00,,,0.00,meteohub,2013-01-19 01:42:00,
2013-01-18 17:47:00,51.4,21.0,30.17,NNE,30,6.0,7.0,30,0.00,,,0.00,meteohub,2013-01-19 01:47:00,
2013-01-18 17:52:00,51.1,22.3,30.17,NE,42,4.0,7.0,32,0.00,,,0.00,meteohub,2013-01-19 01:52:00,
2013-01-18 17:57:00,50.0,22.1,30.17,NE,36,5.0,7.0,33,0.00,,,0.00,meteohub,2013-01-19 01:57:00,
2013-01-18 18:03:00,49.6,21.7,30.17,NE,46,4.0,7.0,33,0.00,,,0.00,meteohub,2013-01-19 02:03:00,
2013-01-18 18:08:00,49.5,22.3,30.17,NNE,22,5.0,6.0,34,0.00,,,0.00,meteohub,2013-01-19 02:08:00,
2013-01-18 18:13:00,49.3,21.4,30.17,NE,38,3.0,6.0,33,0.00,,,0.00,meteohub,2013-01-19 02:13:00,
2013-01-18 18:18:00,50.2,20.7,30.17,NE,45,6.0,10.0,31,0.00,,,0.00,meteohub,2013-01-19 02:18:00,
2013-01-18 18:23:00,51.3,21.6,30.17,ENE,59,4.0,10.0,31,0.00,,,0.00,meteohub,2013-01-19 02:23:00,
2013-01-18 18:28:00,51.4,21.7,30.17,NE,41,6.0,10.0,31,0.00,,,0.00,meteohub,2013-01-19 02:28:00,
2013-01-18 18:33:00,51.6,21.2,30.18,NE,46,8.0,10.0,30,0.00,,,0.00,meteohub,2013-01-19 02:33:00,
2013-01-18 18:38:00,51.6,21.2,30.18,NE,50,8.0,11.0,30,0.00,,,0.00,meteohub,2013-01-19 02:38:00,
2013-01-18 18:43:00,51.4,21.7,30.18,ENE,58,8.0,11.0,31,0.00,,,0.00,meteohub,2013-01-19 02:43:00,
2013-01-18 18:48:00,51.1,21.6,30.18,ENE,57,8.0,11.0,31,0.00,,,0.00,meteohub,2013-01-19 02:48:00,
2013-01-18 18:53:00,50.5,21.0,30.18,NE,46,5.0,9.0,31,0.00,,,0.00,meteohub,2013-01-19 02:53:00,
2013-01-18 18:58:00,50.5,21.0,30.18,NE,51,5.0,9.0,31,0.00,,,0.00,meteohub,2013-01-19 02:58:00,
2013-01-18 19:03:00,51.1,20.7,30.18,ENE,57,8.0,9.0,30,0.00,,,0.00,meteohub,2013-01-19 03:03:00,
2013-01-18 19:08:00,51.4,20.3,30.18,NE,39,5.0,9.0,29,0.00,,,0.00,meteohub,2013-01-19 03:08:00,
2013-01-18 19:13:00,51.6,21.2,30.18,NE,48,5.0,9.0,30,0.00,,,0.00,meteohub,2013-01-19 03:13:00,
2013-01-18 19:18:00,52.2,21.7,30.18,NE,39,7.0,9.0,30,0.00,,,0.00,meteohub,2013-01-19 03:18:00,
2013-01-18 19:23:00,52.2,22.5,30.18,NE,42,5.0,10.0,31,0.00,,,0.00,meteohub,2013-01-19 03:23:00,
2013-01-18 19:28:00,52.0,23.0,30.18,NE,36,5.0,10.0,32,0.00,,,0.00,meteohub,2013-01-19 03:28:00,
2013-01-18 19:33:00,52.2,23.2,30.18,NE,54,8.0,10.0,32,0.00,,,0.00,meteohub,2013-01-19 03:33:00,
2013-01-18 19:38:00,52.3,23.4,30.18,NE,40,6.0,10.0,32,0.00,,,0.00,meteohub,2013-01-19 03:38:00,
2013-01-18 19:43:00,52.5,23.5,30.18,NE,40,4.0,9.0,32,0.00,,,0.00,meteohub,2013-01-19 03:43:00,
2013-01-18 19:48:00,52.3,23.4,30.18,NE,38,5.0,9.0,32,0.00,,,0.00,meteohub,2013-01-19 03:48:00,
2013-01-18 19:53:00,52.7,22.8,30.18,NE,34,6.0,9.0,31,0.00,,,0.00,meteohub,2013-01-19 03:53:00,
2013-01-18 19:58:00,53.2,23.4,30.18,NE,38,8.0,12.0,31,0.00,,,0.00,meteohub,2013-01-19 03:58:00,
2013-01-18 20:03:00,53.8,23.0,30.18,NNE,28,5.0,12.0,30,0.00,,,0.00,meteohub,2013-01-19 04:03:00,
2013-01-18 20:08:00,54.0,23.2,30.18,NE,55,5.0,12.0,30,0.00,,,0.00,meteohub,2013-01-19 04:08:00,
2013-01-18 20:13:00,53.8,23.0,30.18,NE,45,4.0,11.0,30,0.00,,,0.00,meteohub,2013-01-19 04:13:00,
2013-01-18 20:18:00,53.8,23.9,30.18,NE,34,8.0,11.0,31,0.00,,,0.00,meteohub,2013-01-19 04:18:00,
2013-01-18 20:23:00,53.8,23.0,30.18,NNE,26,6.0,11.0,30,0.00,,,0.00,meteohub,2013-01-19 04:23:00,
2013-01-18 20:28:00,53.8,23.0,30.18,NE,36,5.0,12.0,30,0.00,,,0.00,meteohub,2013-01-19 04:28:00,
2013-01-18 20:33:00,53.6,23.7,30.18,NE,49,5.0,12.0,31,0.00,,,0.00,meteohub,2013-01-19 04:33:00,
2013-01-18 20:38:00,53.4,22.8,30.18,ENE,60,8.0,12.0,30,0.00,,,0.00,meteohub,2013-01-19 04:38:00,
2013-01-18 20:43:00,53.4,23.5,30.18,NE,39,6.0,10.0,31,0.00,,,0.00,meteohub,2013-01-19 04:43:00,
2013-01-18 20:48:00,53.2,24.1,30.18,NE,46,5.0,11.0,32,0.00,,,0.00,meteohub,2013-01-19 04:48:00,
2013-01-18 20:53:00,53.1,23.2,30.18,NE,53,6.0,11.0,31,0.00,,,0.00,meteohub,2013-01-19 04:53:00,
2013-01-18 20:58:00,53.1,23.2,30.18,NE,38,7.0,11.0,31,0.00,,,0.00,meteohub,2013-01-19 04:58:00,
2013-01-18 21:00:00,53.1,23.2,30.18,NE,35,7.0,11.0,31,0.00,,,0.00,meteohub,2013-01-19 05:00:00,
2013-01-18 21:01:00,53.2,23.4,30.18,NE,42,10.0,10.0,31,0.00,,,0.00,meteohub,2013-01-19 05:01:00,
2013-01-18 21:03:00,53.2,23.4,30.18,NE,41,8.0,10.0,31,0.00,,,0.00,meteohub,2013-01-19 05:03:00,
2013-01-18 21:08:00,53.2,22.6,30.18,NE,52,6.0,11.0,30,0.00,,,0.00,meteohub,2013-01-19 05:08:00,
2013-01-18 21:13:00,53.2,22.6,30.18,NE,53,6.0,14.0,30,0.00,,,0.00,meteohub,2013-01-19 05:13:00,
2013-01-18 21:18:00,53.2,23.4,30.19,NE,34,8.0,14.0,31,0.00,,,0.00,meteohub,2013-01-19 05:18:00,
2013-01-18 21:23:00,52.9,23.0,30.18,ENE,62,8.0,14.0,31,0.00,,,0.00,meteohub,2013-01-19 05:23:00,
2013-01-18 21:28:00,52.7,22.8,30.18,NE,40,7.0,11.0,31,0.00,,,0.00,meteohub,2013-01-19 05:28:00,
2013-01-18 21:33:00,52.5,21.9,30.18,NE,47,10.0,11.0,30,0.00,,,0.00,meteohub,2013-01-19 05:33:00,
2013-01-18 21:38:00,52.9,21.6,30.18,NE,51,7.0,12.0,29,0.00,,,0.00,meteohub,2013-01-19 05:38:00,
2013-01-18 21:43:00,53.1,20.8,30.18,NE,45,9.0,14.0,28,0.00,,,0.00,meteohub,2013-01-19 05:43:00,
2013-01-18 21:48:00,53.4,19.4,30.18,NNE,24,5.0,14.0,26,0.00,,,0.00,meteohub,2013-01-19 05:48:00,
2013-01-18 21:53:00,53.8,19.8,30.18,ENE,60,8.0,14.0,26,0.00,,,0.00,meteohub,2013-01-19 05:53:00,
2013-01-18 21:58:00,53.8,19.8,30.18,NE,39,8.0,13.0,26,0.00,,,0.00,meteohub,2013-01-19 05:58:00,
2013-01-18 22:03:00,54.0,18.9,30.18,NNE,25,7.0,13.0,25,0.00,,,0.00,meteohub,2013-01-19 06:03:00,
2013-01-18 22:08:00,54.1,19.0,30.18,North,5,11.0,13.0,25,0.00,,,0.00,meteohub,2013-01-19 06:08:00,
2013-01-18 22:13:00,54.1,18.1,30.18,NE,46,10.0,13.0,24,0.00,,,0.00,meteohub,2013-01-19 06:13:00,
2013-01-18 22:19:00,54.1,18.1,30.18,NE,41,5.0,13.0,24,0.00,,,0.00,meteohub,2013-01-19 06:19:00,
2013-01-18 22:24:00,54.0,18.9,30.18,NE,46,6.0,12.0,25,0.00,,,0.00,meteohub,2013-01-19 06:24:00,
2013-01-18 22:29:00,54.1,18.1,30.18,NE,53,9.0,12.0,24,0.00,,,0.00,meteohub,2013-01-19 06:29:00,
2013-01-18 22:34:00,54.0,18.0,30.19,NE,53,7.0,11.0,24,0.00,,,0.00,meteohub,2013-01-19 06:34:00,
2013-01-18 22:39:00,53.8,17.8,30.19,ENE,76,10.0,11.0,24,0.00,,,0.00,meteohub,2013-01-19 06:39:00,
2013-01-18 22:44:00,53.8,17.8,30.19,NNE,28,7.0,12.0,24,0.00,,,0.00,meteohub,2013-01-19 06:44:00,
2013-01-18 22:49:00,53.8,17.8,30.19,NNE,24,6.0,14.0,24,0.00,,,0.00,meteohub,2013-01-19 06:49:00,
2013-01-18 22:54:00,53.4,18.5,30.19,NE,54,6.0,14.0,25,0.00,,,0.00,meteohub,2013-01-19 06:54:00,
2013-01-18 22:59:00,53.4,17.6,30.19,NE,46,5.0,14.0,24,0.00,,,0.00,meteohub,2013-01-19 06:59:00,
2013-01-18 23:04:00,53.2,17.4,30.19,NE,36,5.0,9.0,24,0.00,,,0.00,meteohub,2013-01-19 07:04:00,
2013-01-18 23:09:00,53.2,17.4,30.19,NNE,33,7.0,9.0,24,0.00,,,0.00,meteohub,2013-01-19 07:09:00,
2013-01-18 23:14:00,52.9,18.0,30.19,NE,38,6.0,9.0,25,0.00,,,0.00,meteohub,2013-01-19 07:14:00,
2013-01-18 23:19:00,52.9,17.1,30.19,NNE,22,5.0,9.0,24,0.00,,,0.00,meteohub,2013-01-19 07:19:00,
2013-01-18 23:24:00,53.1,18.1,30.19,NNE,28,4.0,9.0,25,0.00,,,0.00,meteohub,2013-01-19 07:24:00,
2013-01-18 23:29:00,52.9,18.0,30.19,NE,44,6.0,9.0,25,0.00,,,0.00,meteohub,2013-01-19 07:29:00,
2013-01-18 23:34:00,52.9,18.0,30.19,NE,45,6.0,11.0,25,0.00,,,0.00,meteohub,2013-01-19 07:34:00,
2013-01-18 23:39:00,53.2,17.4,30.19,NE,36,4.0,11.0,24,0.00,,,0.00,meteohub,2013-01-19 07:39:00,
2013-01-18 23:44:00,53.6,17.6,30.19,NNE,24,7.0,11.0,24,0.00,,,0.00,meteohub,2013-01-19 07:44:00,
2013-01-18 23:49:00,53.6,17.6,30.19,NNE,30,7.0,11.0,24,0.00,,,0.00,meteohub,2013-01-19 07:49:00,
2013-01-18 23:54:00,53.4,17.6,30.19,NE,51,6.0,11.0,24,0.00,,,0.00,meteohub,2013-01-19 07:54:00,
2013-01-18 23:59:00,53.4,17.6,30.19,NE,44,8.0,11.0,24,0.00,,,0.00,meteohub,2013-01-19 07:59:00,